Wind_Speed
80 80 80 80 80 80 81 80 80 80 80 80 81 81 81 82 83 83 84 84 85 85 86 86 86 86 86 86 85 85 85 84 84 83 82 81 80 79 78 77 77 78 79 80 80 81 81 81 81 81 81 81 81 82 83 84 87 91 94 96 98 98 98 98 99 101 102 105 107 108 108 107 106 105 103 102 101 101 100 100 101 102 103 104 105 105
80 80 81 81 80 81 81 81 81 81 81 81 82 82 83 84 84 85 86 86 87 87 87 87 87 87 86 86 86 85 85 85 84 83 82 81 80 79 78 78 79 79 80 81 81 81 81 81 81 81 81 81 82 82 84 86 89 93 96 98 98 98 98 99 100 102 104 106 108 108 108 107 106 105 103 102 101 101 100 100 101 102 103 104 105 106
81 81 81 81 81 81 81 82 82 82 82 83 84 84 85 85 86 86 87 87 88 88 88 87 87 87 86 86 86 86 85 85 84 83 82 81 80 80 80 80 81 81 82 82 82 82 81 81 81 81 81 81 82 83 85 88 92 95 97 98 98 98 98 99 101 103 105 107 109 109 108 107 105 104 103 102 101 101 100 101 102 103 104 105 106 107
82 82 83 83 83 83 83 83 84 84 85 85 85 86 86 87 87 88 88 88 88 88 88 88 87 87 86 86 86 86 85 85 84 83 82 81 81 81 82 82 82 83 83 82 82 82 82 82 82 81 81 82 83 85 88 91 94 97 98 98 98 98 98 100 102 105 107 109 109 109 108 106 105 104 103 102 101 101 101 101 102 103 104 105 107 108
84 84 84 84 84 85 85 85 85 86 86 86 87 87 87 88 88 88 88 88 88 88 88 88 87 87 87 86 86 86 85 85 84 83 83 83 83 83 84 84 84 83 83 83 82 82 82 82 81 81 82 83 85 87 90 94 96 98 98 98 97 98 99 101 104 106 108 110 110 109 107 106 104 103 102 102 101 101 101 102 103 104 105 106 107 109
86 86 86 86 86 86 86 87 87 87 87 87 87 87 88 88 88 88 88 88 88 88 88 87 87 87 87 86 86 86 85 85 85 85 85 85 85 85 85 85 84 83 83 82 82 82 81 81 81 82 83 85 87 90 93 96 98 98 98 97 97 98 100 103 105 108 110 110 110 109 107 105 104 103 102 101 101 101 102 102 103 104 105 106 107 109
88 88 88 88 88 88 87 87 87 87 87 87 88 88 88 88 88 88 88 88 88 88 88 88 87 87 86 86 86 86 86 86 86 86 86 86 86 86 85 85 84 83 82 82 81 81 81 81 82 84 85 88 90 93 96 97 98 98 97 97 97 99 102 105 107 109 110 110 109 108 107 105 104 103 102 102 102 102 102 103 103 104 105 106 108 110
89 89 89 89 88 88 88 88 87 87 87 87 88 88 88 88 88 88 88 88 88 88 87 87 87 87 86 86 86 87 88 88 88 87 87 87 87 86 85 84 83 82 81 81 81 81 81 82 84 86 88 90 93 95 97 98 98 97 97 97 99 101 104 107 109 110 111 110 109 108 106 105 104 103 103 102 102 103 103 104 104 105 106 107 109 112
89 89 89 89 88 88 88 88 88 88 88 88 88 88 88 88 88 88 88 88 88 88 87 87 86 86 87 87 88 88 89 88 88 87 87 86 85 84 83 82 81 81 80 80 81 81 83 84 86 88 90 93 95 97 98 98 97 96 97 98 100 103 106 108 110 111 110 110 109 107 106 105 104 103 103 103 103 103 104 104 105 106 107 109 111 114
87 87 87 88 88 88 87 88 89 89 89 89 88 88 88 88 88 88 89 89 88 88 87 86 86 87 88 89 89 89 89 88 88 87 85 84 83 82 81 81 80 80 80 81 81 83 84 86 88 90 92 95 96 97 97 97 96 96 98 100 102 105 108 110 111 111 110 109 108 107 105 105 104 103 103 103 104 104 105 105 106 107 109 111 114 117
85 86 86 87 87 88 88 88 88 89 89 89 89 89 89 88 88 89 89 89 89 89 88 87 87 88 88 89 90 89 88 87 86 85 84 82 81 81 80 80 80 80 81 82 83 84 86 88 90 92 94 96 97 97 96 96 96 97 99 102 105 107 109 111 111 111 110 109 107 106 105 104 104 104 104 104 104 105 105 106 107 109 111 114 117 121
85 85 86 86 87 87 88 88 88 88 88 88 88 89 89 90 90 90 90 90 90 89 89 89 89 89 89 89 89 88 87 86 84 83 82 81 80 80 80 81 81 82 82 83 85 86 88 90 92 94 95 96 96 96 95 95 96 98 101 104 107 109 111 111 111 111 110 108 107 106 105 104 104 104 104 104 105 106 106 107 109 111 113 117 121 124
86 86 86 87 87 87 87 87 88 88 88 88 89 90 90 91 91 91 91 91 91 90 90 90 90 90 90 89 87 86 85 84 82 81 80 80 80 81 81 82 82 83 84 85 87 88 90 92 93 95 95 96 95 95 95 96 98 100 103 106 109 110 111 112 111 111 109 108 106 105 105 104 104 104 105 105 106 106 107 108 110 113 116 120 124 127
87 87 87 87 87 87 87 87 87 88 89 90 90 91 92 92 92 92 92 92 92 92 91 91 90 90 89 88 86 85 83 82 81 81 80 81 81 81 82 83 84 85 86 87 88 90 92 93 94 95 95 95 94 94 95 97 99 103 106 108 110 111 112 112 111 110 109 107 106 105 105 105 105 105 105 106 106 107 108 110 113 116 120 124 127 129
86 86 86 86 86 87 87 88 88 90 91 92 92 93 93 94 94 94 94 94 94 94 92 91 91 90 89 87 85 83 82 81 81 81 81 81 82 82 83 84 85 86 87 89 90 92 93 94 94 94 94 94 94 95 96 99 102 105 107 110 111 112 112 112 111 109 108 107 106 105 105 105 105 105 106 106 107 108 110 112 116 119 123 127 129 129
87 87 87 87 87 88 89 90 91 92 93 94 95 95 96 96 96 96 96 96 95 94 93 91 90 89 88 87 84 82 81 81 81 81 81 82 83 84 84 86 87 88 89 91 92 93 94 94 94 94 93 93 94 96 98 101 104 107 109 111 112 112 112 111 110 109 107 106 106 106 105 106 106 106 106 107 108 110 112 115 119 123 126 129 129 127
91 90 90 90 91 92 93 94 95 96 96 97 98 98 98 98 98 98 97 96 95 94 93 91 89 88 86 85 84 83 81 81 82 82 83 83 84 85 86 87 89 90 92 93 94 94 94 94 94 93 93 94 95 98 101 104 106 109 111 112 113 113 112 111 109 108 107 106 106 106 106 106 106 107 107 108 110 112 115 119 122 126 129 129 128 124
94 94 94 95 96 97 98 98 98 99 99 99 99 100 100 100 99 98 97 96 95 93 92 90 88 85 83 82 82 83 82 82 82 83 84 85 86 87 87 89 90 92 94 95 95 95 94 94 93 93 94 95 97 100 103 106 109 110 112 113 113 112 111 110 108 107 107 106 106 106 106 107 107 107 108 110 112 115 118 122 126 128 129 128 125 120
97 97 98 98 99 100 100 100 100 100 100 100 100 100 100 99 98 97 96 95 93 91 89 87 85 83 82 81 82 83 83 83 84 85 86 87 88 88 89 91 93 94 95 96 95 95 94 93 93 94 95 97 100 103 106 108 110 112 113 113 113 112 111 109 108 107 106 106 106 106 107 107 108 109 110 112 115 118 122 126 128 129 128 125 121 115
98 99 99 100 100 101 101 101 101 100 100 100 99 99 98 98 97 96 95 93 91 89 87 84 83 82 82 82 83 84 84 85 85 86 87 88 89 90 92 93 95 96 96 96 95 94 94 94 94 95 97 100 103 106 108 110 112 113 113 113 113 111 110 108 107 107 106 106 107 107 107 108 109 110 112 115 118 122 125 128 129 128 125 121 115 109
99 100 101 101 100 100 100 101 101 100 99 99 98 97 97 96 95 94 93 90 88 86 85 83 83 83 83 83 84 85 86 86 87 88 89 90 91 93 94 95 96 97 96 96 95 94 94 95 96 98 100 103 105 108 110 111 113 113 113 113 112 111 109 108 107 107 107 107 107 107 108 109 110 112 115 118 122 125 128 129 129 126 121 116 109 103
100 101 101 101 101 100 100 100 100 100 99 97 96 96 96 95 94 92 90 88 86 85 84 84 84 85 85 85 86 87 88 88 88 89 90 92 94 95 96 96 97 96 96 96 95 95 96 97 98 100 103 105 108 110 111 112 113 114 114 113 111 110 108 108 107 107 107 107 108 108 109 110 112 115 118 122 125 128 130 129 126 122 116 110 103 97
101 101 101 101 101 100 100 100 99 99 98 97 96 95 95 93 92 90 89 87 86 85 85 86 86 86 87 87 88 88 89 89 90 91 92 94 96 97 97 97 96 96 96 96 96 97 98 99 101 103 105 108 110 111 112 113 114 114 113 112 111 109 108 107 107 107 107 108 108 109 110 112 115 118 122 125 128 129 129 126 122 116 110 104 97 91
101 101 101 101 101 100 100 99 99 98 97 96 96 95 94 92 91 89 88 87 87 87 87 87 87 88 88 89 89 90 90 91 92 93 94 96 97 97 97 96 96 96 97 97 98 98 100 102 104 106 108 109 111 112 113 114 114 114 113 111 110 109 108 108 107 108 108 109 109 111 113 115 118 122 125 128 130 129 127 122 117 111 104 97 91 86
101 101 101 101 101 100 100 99 98 98 97 96 95 94 93 92 91 90 89 88 88 88 88 88 88 89 89 90 91 91 92 93 93 94 95 97 97 97 97 97 96 97 98 99 100 101 102 104 106 108 109 111 112 113 114 114 114 113 112 110 109 108 108 108 108 108 109 110 111 113 115 118 122 125 128 130 129 127 123 117 111 104 98 92 87 82
101 101 101 101 100 100 99 99 98 97 96 95 94 93 92 91 90 90 89 89 89 88 89 89 89 90 91 91 92 93 94 94 95 95 96 97 97 98 98 97 98 98 99 101 102 103 104 106 108 110 111 112 113 114 114 114 113 112 110 109 108 108 108 108 108 109 110 111 113 116 119 122 125 128 130 129 127 123 118 111 105 98 92 87 83 79
102 101 101 101 100 99 98 98 97 96 95 94 93 92 91 90 90 89 89 89 89 89 89 90 91 91 92 92 93 94 95 95 96 96 97 97 98 98 99 99 100 100 101 103 104 105 106 108 110 111 112 113 114 114 114 114 112 111 109 108 108 108 108 108 109 110 111 113 116 119 122 126 128 130 129 127 123 118 112 105 98 93 87 83 80 77
102 101 101 100 99 98 97 96 95 94 93 92 92 91 90 89 89 89 89 90 90 90 90 91 92 92 93 94 95 95 96 96 97 97 97 98 99 99 100 101 101 102 103 104 106 107 109 110 111 112 113 114 115 115 114 113 111 110 109 108 108 108 108 109 110 112 114 116 119 123 126 128 129 129 127 124 118 112 105 99 93 88 84 80 77 75
102 101 100 99 98 97 95 94 93 92 92 91 90 90 89 89 89 89 90 90 90 91 92 92 93 94 94 95 96 97 97 97 98 98 98 99 100 101 102 103 103 104 105 106 108 110 111 112 113 114 114 115 115 115 113 112 110 109 108 108 108 109 109 110 112 114 117 120 123 126 128 129 129 127 124 119 112 106 99 93 88 84 81 78 76 73
101 100 98 97 96 95 93 92 91 91 90 90 89 89 89 89 89 89 90 91 91 92 93 94 95 95 96 97 97 98 99 99 99 100 100 101 102 103 104 104 105 106 107 108 110 112 113 114 115 115 115 115 115 114 112 110 109 108 108 108 109 110 111 112 114 117 120 123 126 128 129 129 127 124 119 113 106 99 93 88 84 81 79 76 74 72
98 97 95 94 93 92 91 90 90 89 89 88 88 88 89 89 90 90 91 92 93 93 94 95 96 97 98 98 99 100 101 101 101 101 102 102 103 105 105 106 107 108 109 110 111 113 115 116 117 117 116 115 113 112 110 109 109 108 108 109 110 111 113 115 117 120 123 126 128 129 129 127 124 119 113 106 99 93 88 85 81 79 77 75 73 70
95 93 92 92 91 90 89 89 89 88 88 88 89 89 90 90 91 92 93 93 94 95 96 97 98 99 100 100 101 102 102 103 103 103 103 104 105 106 107 108 109 110 111 112 113 114 115 117 117 117 116 114 112 110 109 109 109 109 109 110 111 113 116 118 121 124 127 129 129 129 127 124 119 113 106 100 94 89 85 82 79 77 75 73 71 69
91 91 90 90 89 89 89 88 89 89 89 89 90 91 91 92 93 94 95 95 96 97 98 99 100 101 102 102 103 103 104 104 104 104 104 105 106 108 109 110 111 112 113 114 115 116 116 117 117 116 114 112 111 110 109 109 109 109 110 112 114 116 119 122 125 127 129 130 129 127 124 119 113 106 100 94 89 85 82 80 78 76 74 72 70 68
89 89 89 89 89 89 89 89 89 90 90 91 92 93 93 94 95 96 97 97 98 99 100 101 101 102 103 103 104 104 105 105 105 106 106 107 108 110 111 112 113 114 115 116 116 117 117 116 115 114 112 111 110 109 109 109 109 111 112 114 117 119 123 125 127 129 130 129 127 123 119 113 107 100 94 89 85 82 80 78 76 74 72 71 69 67
89 89 89 89 89 90 90 90 91 92 92 93 94 94 95 96 97 98 98 99 100 101 101 102 102 103 103 104 104 105 106 106 107 107 108 109 110 111 112 113 114 115 116 117 117 117 116 115 113 112 110 110 110 109 109 110 111 113 115 117 120 123 126 128 129 129 129 126 123 118 113 107 100 95 90 86 83 81 79 77 75 73 71 69 68 66
89 90 90 90 91 91 92 92 93 94 94 95 95 96 97 98 99 99 100 101 101 102 103 103 103 104 104 105 105 106 108 109 109 110 110 111 112 113 114 115 116 117 117 117 117 116 114 113 112 110 110 109 109 110 111 112 114 116 118 121 124 126 128 129 129 128 126 122 118 112 106 100 95 90 87 84 81 79 78 76 74 72 70 69 67 65
91 92 92 93 93 93 94 95 95 96 96 97 97 98 99 100 100 101 102 102 103 104 104 105 105 106 106 107 108 109 110 110 111 112 112 113 114 115 116 117 118 118 117 116 115 113 112 111 111 110 110 110 110 111 112 114 117 119 122 125 127 129 129 129 128 125 122 117 112 106 100 95 91 87 85 82 80 79 77 75 73 71 70 68 66 64
94 94 95 95 95 96 96 97 97 98 98 99 100 100 101 102 102 103 104 104 105 106 106 107 108 108 109 110 110 111 111 112 113 114 114 115 116 117 117 118 118 117 115 114 112 111 111 110 110 110 111 111 112 113 115 118 120 123 126 128 129 130 129 127 125 121 116 111 106 100 95 91 88 85 83 82 80 78 76 74 73 71 69 67 65 64
97 97 98 98 98 99 99 100 100 101 101 102 102 103 104 104 105 106 106 107 108 108 109 109 110 110 111 112 112 113 113 114 115 116 117 117 118 118 117 116 115 114 113 112 111 110 110 110 110 111 112 113 114 117 119 122 124 126 128 130 130 129 127 124 120 115 110 105 100 95 92 89 86 84 83 81 79 78 76 74 72 71 69 67 65 63
100 100 101 101 101 102 102 103 103 104 104 105 105 106 106 107 107 108 109 109 110 110 111 111 111 112 112 113 114 114 115 116 117 117 118 118 117 116 115 114 113 112 111 111 110 110 110 111 112 113 114 116 118 120 123 126 128 129 130 129 128 126 123 119 114 109 104 99 95 92 89 87 85 83 82 81 79 77 76 74 72 70 68 66 65 63
103 103 103 104 104 104 105 105 105 106 106 107 107 107 108 108 109 109 110 110 111 111 112 112 113 113 114 115 116 116 117 117 117 117 117 116 115 114 112 111 111 110 110 110 111 111 112 112 113 115 117 119 122 124 127 129 130 130 129 127 125 122 118 113 108 103 99 95 92 89 87 86 84 83 82 80 79 77 75 73 72 70 68 66 64 62
104 105 105 105 106 106 106 106 107 107 107 108 108 108 109 109 110 110 111 111 112 112 113 114 114 115 116 116 117 117 117 116 116 115 114 113 112 111 110 110 110 110 110 111 111 112 114 115 116 118 121 123 126 128 129 130 130 129 127 124 121 116 112 107 102 98 94 91 89 87 86 85 84 83 81 80 78 77 75 73 71 70 68 66 64 62
106 106 106 106 107 107 107 107 108 108 108 109 109 110 110 111 111 112 112 113 114 115 115 115 116 116 116 116 116 116 115 114 113 112 112 111 110 110 110 110 110 111 111 112 113 114 116 118 120 122 125 127 129 130 130 130 129 127 124 120 115 110 106 101 97 94 91 89 88 86 85 84 83 82 81 79 78 76 75 73 71 69 67 66 64 62
107 107 107 108 108 108 109 109 109 110 110 111 111 112 113 113 114 114 115 115 116 116 117 116 116 115 115 114 114 113 113 112 112 111 110 110 110 110 110 111 111 112 113 114 115 117 120 122 124 127 128 130 130 130 129 128 126 123 119 114 109 105 100 97 94 91 89 88 87 86 85 84 83 82 80 79 77 76 74 72 71 69 67 65 64 62
108 109 109 110 110 110 110 111 112 112 113 113 114 114 115 115 115 116 116 116 116 116 116 115 114 113 113 112 112 112 111 111 111 111 111 111 111 111 111 112 113 114 115 117 119 121 123 126 128 130 131 131 130 129 127 124 121 117 113 108 104 100 96 93 91 89 88 87 86 86 85 84 82 81 80 78 77 75 73 72 70 69 67 65 64 62
110 111 111 111 112 112 112 113 113 114 114 114 115 115 115 115 115 115 115 115 114 114 113 113 112 111 111 111 111 111 111 111 111 111 111 112 112 112 113 114 115 117 119 121 123 125 127 129 130 131 131 130 128 126 123 120 116 111 107 103 99 96 93 91 90 88 87 87 86 85 84 83 82 81 79 78 76 74 73 72 70 69 67 65 64 62
112 112 113 113 113 113 114 114 114 114 114 114 114 114 114 114 114 113 113 113 112 112 111 111 110 110 110 110 110 111 111 111 112 112 113 113 114 115 116 117 119 121 123 125 127 129 130 131 131 130 129 127 125 122 119 114 110 106 102 98 96 93 92 90 89 88 87 87 86 85 84 83 82 80 79 77 76 74 73 71 70 68 67 65 63 62
113 113 114 114 114 114 114 114 113 113 113 113 113 113 113 113 112 112 112 111 111 111 111 110 110 110 110 111 111 111 112 112 113 113 114 115 116 118 120 122 124 126 128 129 130 131 131 131 130 128 126 123 120 117 113 109 104 101 98 95 93 92 91 90 89 88 87 87 86 85 84 83 81 80 79 77 76 74 73 71 70 68 66 65 63 62
113 113 113 113 113 113 113 113 112 112 112 112 112 112 112 112 111 111 111 111 111 111 111 111 111 111 111 112 112 113 113 114 115 116 117 119 120 122 124 126 128 130 131 132 132 132 131 130 128 125 122 118 114 111 107 103 100 97 95 93 92 91 90 90 89 88 87 87 86 85 84 82 81 80 78 77 75 74 72 71 69 68 66 64 63 61
113 113 112 112 112 112 112 112 112 111 111 111 111 111 112 112 112 112 112 111 111 111 111 112 112 112 112 113 114 115 115 116 118 120 121 123 125 127 129 130 131 131 132 132 131 130 129 127 124 121 117 113 109 105 102 99 97 95 94 92 91 91 90 90 89 88 87 87 86 85 83 82 81 79 78 77 75 74 72 70 69 67 66 64 62 61
113 112 112 112 112 112 112 112 112 112 112 112 112 112 112 112 112 113 113 113 113 113 113 113 114 114 115 115 117 118 119 121 122 124 126 128 129 130 131 132 132 132 131 130 129 127 125 122 119 116 112 108 104 100 98 96 95 94 93 92 91 91 90 90 89 88 87 87 86 84 83 82 81 79 78 76 75 73 72 70 69 67 65 64 62 61
Wind_Direction
281 282 283 284 285 285 286 286 287 287 288 288 289 289 290 290 291 292 292 293 294 295 296 296 297 298 298 299 300 300 301 303 304 305 306 306 307 306 306 306 305 304 304 304 304 304 304 304 305 305 305 306 307 308 308 309 310 312 313 314 314 315 316 317 318 319 321 322 322 323 324 324 324 324 325 325 325 325 325 325 324 324 324 324 324 325
281 282 283 284 284 285 285 286 286 287 288 288 289 289 290 290 291 292 292 293 294 295 296 296 297 297 298 299 299 300 301 303 304 305 305 306 306 305 305 305 304 304 304 304 304 304 304 304 305 305 306 306 307 307 308 309 310 311 312 313 314 315 316 317 318 319 320 321 322 323 323 323 324 324 324 324 324 324 324 324 324 324 324 324 324 324
280 282 282 283 284 285 285 286 286 287 287 288 288 289 290 290 291 292 292 293 294 295 295 296 296 297 298 298 299 300 302 303 304 304 305 305 305 305 304 304 304 303 304 304 304 304 304 305 305 306 306 306 307 307 308 309 310 311 312 313 314 315 316 317 318 319 320 321 322 322 322 323 323 323 323 323 324 324 323 323 323 323 323 323 323 324
280 281 282 283 284 284 285 285 286 287 287 288 288 289 289 290 290 291 292 293 293 294 294 295 296 297 297 298 299 301 302 303 303 304 304 304 304 304 304 304 304 304 304 304 304 304 305 305 306 306 306 306 306 307 307 309 310 311 313 313 314 315 316 317 318 319 320 320 321 321 322 322 322 322 323 323 323 323 323 322 322 323 323 323 323 323
280 281 282 283 284 284 285 285 286 286 287 287 288 288 289 289 290 291 291 292 292 293 294 295 296 297 298 299 300 301 302 302 303 303 303 303 303 303 303 303 303 303 304 304 304 305 305 306 306 306 306 305 306 306 307 309 310 312 313 313 314 315 316 317 318 318 319 320 321 321 321 321 322 322 322 322 322 322 322 322 322 322 322 322 322 322
280 281 282 283 283 284 284 285 285 286 286 287 287 287 288 289 289 290 291 291 292 293 294 295 296 298 299 300 301 301 302 302 302 302 302 302 303 303 303 303 303 303 304 304 305 305 306 306 306 305 305 305 305 306 308 309 311 312 312 313 314 315 316 316 317 318 319 319 320 320 321 321 321 321 322 322 321 321 321 321 321 321 321 321 322 322
280 281 281 282 283 283 284 284 285 285 286 286 286 287 287 288 289 289 290 291 292 293 295 296 297 299 300 300 301 301 301 301 301 301 302 302 302 302 303 303 303 304 304 305 305 306 306 305 304 304 304 304 305 307 308 310 311 312 312 313 314 314 315 316 317 318 319 319 319 320 320 320 321 321 321 321 321 320 320 320 320 321 321 321 321 321
279 280 281 282 282 283 284 284 284 284 285 285 286 286 287 288 289 289 290 292 293 295 296 298 299 299 300 300 300 300 300 300 301 301 301 302 302 302 303 303 304 304 305 305 305 305 304 304 303 303 303 304 306 307 308 310 311 311 312 313 313 314 315 316 317 318 318 319 319 319 320 320 320 320 320 320 320 320 320 320 320 320 320 320 321 321
279 279 280 281 282 283 283 284 284 284 284 285 285 286 287 288 289 290 292 293 295 296 298 299 299 299 299 299 299 299 299 300 300 301 301 302 302 303 303 304 304 305 305 305 304 304 303 302 302 302 303 305 306 307 309 310 310 311 312 312 313 314 315 316 317 317 318 318 318 319 319 319 320 320 319 319 319 319 319 319 319 319 320 320 320 321
279 279 280 281 282 282 283 283 283 284 284 285 285 286 287 289 290 292 294 295 297 298 298 299 298 298 298 298 298 299 299 300 300 300 301 301 302 302 303 303 304 304 304 303 303 302 301 301 302 303 304 305 306 308 309 309 310 310 311 312 313 314 315 316 316 317 317 318 318 318 319 319 319 319 319 318 318 318 318 318 319 319 319 320 320 321
279 279 280 280 281 281 282 282 283 284 284 286 287 288 289 290 292 293 295 296 297 298 298 298 298 297 298 298 298 298 299 299 300 300 301 301 301 302 302 302 302 302 302 302 301 301 301 301 302 303 304 305 307 307 308 309 309 310 311 312 313 314 315 315 316 316 317 317 318 318 318 318 318 318 318 318 318 318 318 318 318 318 319 320 320 321
277 278 278 279 280 280 281 282 283 284 285 286 288 289 290 291 293 294 295 296 296 297 297 297 297 297 297 297 298 298 299 299 299 300 300 300 300 301 301 301 301 301 301 301 301 301 301 302 302 303 304 306 306 307 308 308 309 310 311 312 313 314 314 315 315 316 316 317 317 317 317 317 317 317 317 317 317 317 317 317 318 318 319 319 320 321
276 277 277 278 278 279 280 281 282 284 285 286 288 289 290 291 293 294 294 295 295 295 296 296 296 296 296 296 297 297 298 298 299 299 299 299 299 300 300 300 300 300 300 300 300 301 301 302 303 304 305 305 306 307 307 308 309 309 310 311 312 313 314 315 315 316 316 316 317 317 317 317 316 316 316 316 316 316 317 317 318 318 319 319 320 321
275 276 276 276 277 277 278 280 281 283 284 286 287 288 289 291 292 293 293 294 294 294 295 295 295 295 295 296 296 296 297 297 297 297 298 298 298 298 299 299 299 299 300 300 300 301 301 302 303 304 304 305 305 306 306 307 308 309 310 311 312 313 314 314 315 315 316 316 316 316 316 316 316 315 315 316 316 316 316 317 317 318 319 319 320 320
274 274 275 275 276 277 278 279 280 282 283 285 286 287 289 290 291 292 292 293 293 293 294 294 294 294 294 295 295 295 296 296 296 296 296 297 297 297 298 298 298 299 299 300 300 301 302 302 303 303 304 304 305 305 306 307 308 309 310 311 312 313 313 314 314 315 315 315 315 315 315 315 315 315 315 315 315 316 316 317 317 318 319 319 320 320
273 273 274 274 275 276 277 279 280 282 283 284 286 287 288 289 290 291 291 292 292 292 293 293 293 293 294 294 294 294 294 294 294 295 295 295 296 297 297 297 298 299 299 300 300 301 302 302 302 303 303 303 304 304 305 306 308 309 310 311 312 312 313 314 314 314 314 315 314 314 314 314 314 314 314 315 315 315 316 316 317 318 319 319 320 320
272 272 273 274 275 276 277 279 280 281 283 284 285 286 287 288 289 290 290 291 291 292 292 292 292 292 293 293 293 293 293 293 293 293 294 294 295 296 297 297 298 298 299 300 300 301 301 302 302 302 302 302 303 304 305 306 307 309 310 311 312 312 313 313 314 314 314 314 314 313 313 313 313 314 314 314 315 315 316 316 317 318 319 319 319 319
271 272 273 274 275 276 278 279 280 281 283 284 285 286 287 288 289 289 290 290 291 291 291 291 292 292 292 292 292 292 292 292 292 292 293 294 294 295 296 297 297 298 299 300 300 301 301 301 301 301 301 302 303 304 305 306 308 309 310 311 312 312 313 313 313 313 313 313 313 313 313 313 313 313 313 314 314 315 316 317 317 318 319 319 319 319
272 272 274 275 276 277 278 280 281 282 283 284 285 286 287 288 288 289 290 290 291 291 291 291 291 291 291 291 291 291 291 291 291 292 292 293 294 295 296 297 298 298 299 300 300 300 300 299 300 300 300 301 302 304 305 307 308 309 310 311 311 312 312 312 312 312 312 312 312 312 312 312 312 313 313 314 314 315 316 317 318 318 318 318 318 318
273 274 275 276 277 278 279 280 281 283 284 285 286 287 287 288 289 289 290 290 291 291 291 291 290 290 290 290 290 290 290 290 291 291 292 293 294 295 296 297 298 298 299 299 299 299 298 298 299 299 300 301 303 304 305 307 308 309 310 311 311 311 312 312 312 312 311 311 311 311 311 312 312 312 313 314 314 315 316 317 318 318 318 318 318 317
274 275 276 277 278 279 280 281 282 283 284 285 286 287 287 288 289 289 290 290 290 290 290 290 290 289 289 289 289 289 290 290 290 291 292 293 294 295 296 297 298 298 298 298 297 297 297 297 298 299 300 302 303 305 306 307 308 309 310 310 311 311 311 311 311 311 311 311 311 311 311 311 312 312 313 314 315 315 316 317 317 318 317 317 317 316
275 276 277 278 279 280 281 282 283 284 285 285 286 287 287 288 289 289 289 290 290 290 290 289 289 289 289 289 289 290 290 290 290 291 292 293 294 295 296 297 297 297 296 296 296 296 297 297 298 299 301 302 304 305 306 307 308 309 310 310 310 310 310 310 310 310 310 310 310 310 311 311 311 312 313 314 315 316 316 317 317 317 317 316 316 316
275 276 277 278 279 280 281 282 283 284 285 285 286 286 287 287 288 288 289 289 289 289 289 289 289 289 290 290 290 290 290 290 290 291 292 293 294 295 296 296 296 295 295 295 295 296 296 297 298 300 301 303 304 305 306 307 308 309 309 309 310 310 310 309 309 309 309 309 310 310 310 311 311 312 313 314 315 316 316 317 317 316 316 316 315 315
275 276 277 278 279 280 281 282 283 284 284 285 285 286 286 287 287 288 288 288 289 289 289 290 290 290 290 290 290 290 290 290 291 291 292 293 294 294 295 295 294 294 294 295 295 296 297 298 299 300 302 303 304 305 306 307 308 308 309 309 309 309 309 308 308 308 309 309 309 310 310 311 312 312 313 314 315 316 316 316 316 316 315 315 314 314
276 277 278 279 279 280 281 282 283 283 284 285 285 286 286 286 287 287 288 288 288 289 289 290 290 290 290 290 290 290 290 291 291 292 292 293 293 293 293 293 293 293 293 294 295 296 297 298 300 301 302 303 304 305 306 307 307 308 308 308 308 308 308 308 308 308 308 309 309 309 310 311 312 313 314 315 315 316 316 316 315 315 314 314 314 313
276 277 278 279 280 280 281 282 283 283 284 284 285 285 286 287 287 287 288 288 288 289 289 290 290 290 290 290 290 290 290 291 291 291 292 292 292 292 292 292 292 293 293 294 295 296 297 299 300 301 302 303 304 305 306 306 307 307 307 307 307 307 307 307 307 307 308 308 309 309 310 311 312 313 314 315 315 315 315 315 314 314 313 313 313 312
276 277 278 279 280 281 281 282 283 283 284 285 285 286 286 287 287 287 288 288 288 289 289 289 289 289 289 289 289 289 290 290 290 290 291 291 291 291 291 291 292 292 293 294 295 296 298 299 300 301 302 303 304 305 305 306 306 306 306 306 306 306 306 306 307 307 307 308 309 309 310 311 312 313 314 315 315 315 314 314 313 313 313 312 312 312
276 277 278 279 280 281 281 282 283 283 284 285 285 286 286 287 287 287 287 288 288 288 288 288 288 288 288 288 289 289 289 289 289 289 290 290 290 290 290 291 292 293 293 295 296 297 298 299 300 301 302 303 304 304 305 305 305 305 305 305 305 305 305 306 306 307 307 308 309 310 311 312 313 314 314 314 314 314 313 313 313 312 312 312 311 311
277 277 278 279 280 280 281 282 283 283 284 285 285 285 286 286 286 286 287 287 287 287 287 287 287 287 287 288 288 288 288 288 288 289 289 289 289 290 290 291 292 293 294 295 296 297 298 299 300 301 302 303 303 304 304 305 305 305 305 304 305 305 305 305 306 306 307 308 309 310 311 312 313 313 314 314 313 313 313 312 312 312 311 311 311 310
276 277 278 279 279 280 281 282 282 283 284 284 284 285 285 285 285 285 285 286 285 285 285 286 286 286 286 286 287 287 287 287 287 288 288 289 289 290 290 291 292 293 294 296 297 298 298 299 300 301 302 302 303 303 304 304 304 304 304 304 304 304 305 305 306 306 307 308 309 311 312 312 313 313 313 313 313 312 312 311 311 311 311 310 310 309
276 277 278 278 279 280 281 281 282 282 283 283 283 283 283 283 283 284 284 284 284 284 284 284 285 285 285 285 285 286 286 286 287 288 288 288 289 290 291 292 293 293 294 296 297 298 299 299 300 301 301 302 303 303 303 303 303 303 303 303 304 304 304 305 306 307 308 309 310 311 312 312 313 313 312 312 312 311 311 311 311 310 310 310 309 309
276 277 278 278 279 279 280 280 281 281 281 281 281 281 282 282 282 282 282 282 282 283 283 283 283 284 284 284 285 285 285 286 287 287 288 288 289 290 291 292 293 294 295 295 297 298 298 299 300 301 301 302 302 302 302 302 302 302 302 303 303 304 304 305 306 307 308 309 310 311 312 312 312 312 312 311 311 311 310 310 310 310 309 309 308 308
276 276 277 278 278 278 279 279 279 280 280 280 280 280 280 280 280 281 281 281 281 282 282 282 283 283 283 284 284 284 285 286 286 287 288 289 289 290 291 292 293 294 295 296 296 297 298 299 300 301 301 301 301 301 301 301 301 302 302 302 303 303 304 305 306 308 309 310 310 311 311 311 311 311 311 310 310 310 310 310 309 309 309 308 308 307
275 276 276 277 277 277 278 278 278 278 279 279 279 279 279 279 280 280 280 280 281 281 281 282 282 282 283 283 284 284 285 285 286 287 288 289 290 291 291 292 293 294 295 296 297 298 298 299 300 300 300 300 300 300 300 300 301 301 302 302 303 304 305 306 307 308 309 310 310 311 311 311 310 310 310 310 309 309 309 309 309 309 308 308 307 307
275 275 276 276 276 277 277 277 278 278 278 278 278 278 279 279 279 279 280 280 280 281 281 281 282 282 282 283 283 284 285 286 286 287 288 289 290 291 292 293 293 294 295 296 297 298 298 299 299 299 299 299 299 299 300 300 300 301 301 302 303 304 305 306 308 308 309 310 310 310 310 310 310 309 309 309 309 309 309 309 308 308 308 307 307 306
274 275 275 275 276 276 276 277 277 277 277 278 278 278 278 279 279 279 280 280 280 281 281 281 282 282 282 283 284 284 285 286 287 288 288 289 290 291 292 293 294 294 295 296 297 297 298 298 298 298 298 298 298 299 299 300 300 301 302 303 304 305 306 307 308 309 309 310 310 310 309 309 309 309 308 309 309 309 309 308 308 308 307 307 306 306
274 274 274 275 275 275 276 276 276 277 277 277 277 278 278 278 279 279 279 280 280 280 281 281 282 282 283 283 284 285 285 286 287 288 289 289 290 291 292 293 294 295 295 296 296 297 297 297 297 297 297 297 298 298 299 300 300 301 302 303 304 305 306 307 308 309 309 309 309 309 308 308 308 308 308 308 308 308 308 308 308 307 307 307 306 305
273 273 273 274 274 275 275 275 276 276 276 277 277 277 278 278 278 279 279 279 280 280 281 281 282 282 283 284 284 285 286 286 287 288 289 290 291 292 293 293 294 295 295 296 296 296 296 296 296 296 297 297 298 298 299 300 301 302 303 304 305 306 307 308 308 309 309 309 308 308 308 308 308 308 308 308 308 308 308 308 308 307 307 306 305 305
272 272 273 273 273 274 274 274 275 275 276 276 276 277 277 278 278 278 279 279 280 280 281 281 282 283 283 284 284 285 286 287 288 289 289 290 291 292 293 294 294 295 295 295 295 295 295 295 295 296 296 297 297 298 299 300 301 302 304 305 306 306 307 308 308 308 308 308 307 307 307 307 307 308 308 308 308 308 308 308 307 307 307 306 305 304
271 272 272 273 273 273 274 274 274 275 275 276 276 277 277 277 278 278 279 279 280 280 281 282 282 283 284 284 285 286 287 287 288 289 290 291 292 292 293 293 294 294 294 294 294 294 294 295 295 296 296 297 298 299 300 301 302 303 304 305 306 307 307 308 308 307 307 307 307 306 307 307 307 307 308 308 308 308 308 307 307 307 306 305 305 304
271 272 272 273 273 273 274 274 274 275 275 276 276 277 277 277 278 278 279 280 280 281 281 282 283 283 284 285 286 287 287 288 289 290 291 291 292 292 292 293 293 293 293 293 293 294 294 294 295 296 296 297 298 299 301 302 303 304 304 305 306 306 307 307 307 307 306 306 306 306 306 307 307 307 308 308 308 308 307 307 307 306 306 305 304 303
271 272 272 273 273 274 274 274 275 275 276 276 277 277 277 278 279 279 280 280 281 281 282 283 284 285 285 286 287 288 288 289 290 290 291 291 291 292 292 292 292 292 292 293 293 293 294 294 295 296 297 298 299 300 301 302 303 304 305 305 306 306 306 306 306 306 306 305 306 306 306 307 307 307 307 307 307 307 307 307 306 306 305 304 303 302
272 272 273 273 274 274 275 275 276 276 276 277 277 278 278 279 279 280 280 281 282 282 283 284 285 286 286 287 288 288 289 289 290 290 290 290 290 291 291 291 291 291 292 292 293 293 294 295 296 296 298 299 300 301 302 303 303 304 305 305 306 306 306 305 305 305 305 305 305 306 306 306 307 307 307 307 307 307 306 306 305 305 304 303 303 302
272 273 274 274 274 275 275 276 276 277 277 278 278 279 279 280 280 281 281 282 283 283 284 285 286 286 287 287 288 288 289 289 289 289 289 289 290 290 290 290 291 291 291 292 292 293 294 295 296 297 298 299 300 301 302 303 304 304 305 305 305 305 305 304 304 304 305 305 305 306 306 306 306 307 307 307 307 306 306 305 305 304 303 303 302 301
273 273 274 274 275 275 276 276 277 277 278 278 279 279 280 281 281 282 282 283 284 284 285 285 286 287 287 287 287 288 288 288 288 288 288 289 289 289 290 290 290 291 291 292 293 294 295 296 297 298 299 300 301 302 302 303 304 304 304 304 304 304 304 304 304 304 304 305 305 305 306 306 306 306 306 306 306 306 305 305 304 303 303 302 301 300
273 274 274 275 275 276 276 277 277 278 278 279 280 280 281 281 282 282 283 283 284 284 285 285 286 286 286 286 287 287 287 287 287 288 288 288 289 289 289 290 290 291 292 293 293 294 295 296 297 298 299 300 301 302 302 303 303 304 304 304 304 303 303 303 304 304 304 305 305 305 305 305 306 306 306 306 306 305 305 304 303 303 302 301 300 299
273 274 274 275 275 276 277 277 278 278 279 280 280 281 281 282 282 283 283 283 284 284 284 285 285 285 285 285 286 286 286 286 287 287 288 288 288 289 289 290 291 291 292 293 294 295 296 297 298 299 300 300 301 302 302 303 303 303 303 303 303 303 303 303 303 304 304 304 304 305 305 305 305 305 305 305 305 305 304 303 303 302 301 300 299 298
273 274 274 275 276 276 277 277 278 279 279 280 280 281 281 282 282 282 282 283 283 283 284 284 284 284 284 285 285 285 285 286 286 287 287 288 288 289 290 291 291 292 293 294 295 296 297 298 298 299 300 301 301 302 302 302 302 302 302 302 302 302 303 303 303 303 304 304 304 304 305 305 305 305 305 305 305 304 304 303 302 301 300 299 298 297
274 274 275 275 276 276 277 277 278 279 279 280 280 280 281 281 281 281 282 282 282 283 283 283 283 283 284 284 284 285 285 286 286 287 287 288 289 289 290 291 292 293 294 295 296 296 297 298 299 299 300 301 301 301 301 302 302 301 301 302 302 302 302 302 303 303 303 304 304 304 304 304 304 305 305 305 304 304 303 302 301 300 299 299 297 296
274 274 275 275 276 276 277 277 278 278 278 279 279 279 280 280 280 281 281 281 281 282 282 282 283 283 283 284 284 284 285 286 286 287 288 288 289 290 291 292 293 294 295 295 296 297 298 298 299 299 300 300 300 301 301 301 301 301 301 301 301 302 302 302 302 303 303 303 304 304 304 304 304 304 304 304 304 303 303 302 301 300 299 298 297 295
273 274 274 274 275 275 276 276 277 277 277 278 278 278 279 279 279 280 280 280 281 281 281 282 282 282 283 283 284 284 285 286 287 287 288 289 290 291 292 293 294 294 295 296 296 297 298 298 299 299 300 300 300 300 300 300 300 300 301 301 301 301 302 302 302 302 303 303 303 304 304 304 304 304 304 304 304 303 303 302 301 300 298 297 296 295
Height
10668 10669 10669 10669 10669 10669 10667 10667 10667 10667 10666 10666 10666 10666 10664 10663 10662 10661 10661 10660 10659 10658 10657 10656 10655 10654 10652 10651 10649 10649 10647 10647 10646 10644 10643 10642 10640 10639 10637 10636 10634 10632 10631 10629 10627 10626 10624 10622 10620 10618 10616 10614 10612 10611 10609 10607 10606 10603 10601 10599 10597 10594 10590 10587 10584 10581 10577 10575 10572 10569 10566 10562 10559 10556 10554 10551 10547 10544 10541 10537 10533 10530 10526 10524 10521 10517
10664 10665 10665 10665 10664 10664 10663 10662 10662 10662 10662 10661 10661 10660 10659 10658 10657 10656 10655 10654 10653 10652 10652 10651 10649 10648 10647 10646 10644 10644 10642 10642 10641 10640 10639 10637 10636 10634 10633 10632 10630 10628 10627 10625 10623 10621 10619 10617 10615 10613 10611 10609 10608 10606 10604 10603 10601 10599 10597 10594 10591 10589 10585 10582 10579 10576 10573 10571 10568 10565 10562 10559 10556 10552 10549 10546 10544 10541 10537 10534 10531 10526 10522 10519 10516 10513
10660 10660 10660 10660 10660 10659 10659 10658 10658 10657 10657 10656 10656 10655 10654 10653 10652 10651 10650 10649 10648 10647 10646 10646 10644 10643 10642 10641 10640 10639 10637 10637 10636 10635 10634 10632 10631 10630 10629 10627 10626 10624 10622 10621 10618 10616 10614 10612 10611 10609 10607 10605 10603 10602 10600 10599 10596 10594 10592 10589 10586 10583 10580 10577 10574 10571 10569 10566 10563 10561 10558 10555 10552 10549 10546 10542 10539 10536 10533 10530 10527 10523 10519 10515 10511 10508
10656 10656 10655 10655 10655 10655 10654 10654 10653 10652 10652 10651 10651 10650 10649 10648 10647 10646 10646 10644 10643 10642 10641 10640 10639 10638 10637 10636 10634 10634 10632 10631 10631 10629 10629 10627 10626 10625 10624 10622 10621 10619 10617 10616 10614 10612 10609 10607 10606 10604 10602 10600 10599 10597 10596 10594 10592 10589 10587 10584 10581 10578 10575 10572 10569 10567 10564 10561 10559 10556 10554 10551 10548 10545 10542 10538 10535 10532 10529 10526 10522 10519 10516 10511 10507 10503
10651 10651 10650 10650 10650 10649 10649 10649 10649 10648 10647 10646 10646 10644 10644 10642 10642 10641 10641 10639 10639 10637 10636 10635 10634 10633 10631 10630 10629 10628 10627 10626 10625 10624 10623 10622 10621 10621 10619 10618 10616 10615 10613 10611 10609 10607 10604 10602 10601 10599 10597 10596 10594 10592 10591 10589 10587 10584 10581 10579 10576 10573 10571 10567 10565 10562 10559 10557 10554 10551 10549 10547 10544 10541 10538 10535 10532 10528 10525 10522 10519 10516 10512 10509 10504 10500
10645 10646 10646 10646 10645 10644 10644 10644 10643 10642 10642 10641 10640 10639 10639 10638 10637 10636 10635 10634 10633 10632 10631 10630 10629 10627 10626 10624 10623 10622 10621 10620 10619 10619 10618 10617 10616 10615 10614 10612 10611 10610 10608 10606 10604 10602 10599 10597 10596 10594 10592 10591 10589 10587 10586 10584 10581 10579 10576 10574 10571 10569 10566 10563 10561 10557 10555 10552 10549 10547 10544 10542 10539 10536 10534 10531 10528 10525 10522 10519 10516 10513 10510 10506 10502 10498
10640 10640 10641 10641 10640 10639 10639 10639 10638 10637 10636 10635 10634 10634 10633 10632 10632 10631 10630 10629 10628 10627 10626 10624 10622 10621 10620 10618 10617 10616 10615 10614 10614 10613 10612 10611 10610 10609 10608 10607 10606 10604 10603 10601 10599 10597 10595 10593 10591 10590 10588 10586 10584 10582 10580 10578 10576 10574 10571 10569 10566 10564 10561 10559 10556 10553 10550 10547 10544 10542 10539 10537 10534 10531 10529 10526 10524 10521 10518 10516 10513 10510 10507 10504 10500 10496
10635 10634 10634 10635 10635 10634 10634 10633 10632 10632 10631 10630 10629 10628 10627 10627 10626 10626 10624 10624 10622 10621 10619 10618 10616 10615 10614 10612 10611 10610 10609 10609 10608 10607 10606 10605 10604 10603 10602 10601 10600 10599 10597 10596 10594 10592 10591 10589 10587 10585 10584 10582 10579 10577 10575 10572 10571 10568 10566 10564 10562 10559 10557 10554 10551 10549 10546 10542 10540 10537 10534 10532 10529 10526 10524 10521 10519 10516 10514 10511 10509 10506 10503 10500 10497 10494
10630 10629 10629 10629 10629 10629 10628 10627 10626 10626 10626 10624 10624 10622 10622 10621 10619 10619 10618 10617 10616 10615 10614 10612 10610 10609 10607 10607 10606 10605 10604 10602 10602 10601 10601 10599 10598 10597 10596 10595 10594 10593 10592 10591 10589 10588 10586 10584 10582 10581 10579 10577 10574 10572 10570 10567 10565 10563 10561 10559 10556 10554 10552 10549 10547 10544 10541 10538 10535 10532 10529 10527 10524 10521 10519 10516 10514 10511 10509 10506 10503 10501 10498 10495 10492 10489
10624 10624 10624 10623 10623 10623 10622 10621 10619 10618 10619 10618 10617 10617 10616 10615 10614 10612 10611 10610 10609 10609 10608 10607 10605 10604 10602 10601 10599 10599 10599 10597 10596 10596 10595 10594 10592 10591 10591 10589 10589 10588 10587 10586 10586 10584 10582 10581 10578 10576 10574 10572 10570 10567 10565 10562 10560 10558 10556 10554 10551 10549 10547 10545 10542 10539 10537 10534 10531 10528 10525 10522 10519 10516 10514 10511 10509 10506 10504 10501 10498 10496 10492 10490 10487 10484
10619 10619 10618 10617 10617 10616 10616 10615 10614 10612 10612 10612 10611 10609 10609 10609 10607 10607 10605 10604 10603 10602 10602 10601 10600 10599 10597 10596 10594 10593 10592 10592 10591 10590 10589 10589 10588 10587 10586 10585 10584 10584 10583 10582 10581 10580 10578 10576 10574 10571 10569 10567 10565 10562 10560 10557 10556 10553 10551 10549 10546 10544 10542 10539 10537 10535 10532 10529 10527 10524 10521 10517 10514 10512 10509 10507 10504 10501 10499 10496 10493 10490 10487 10484 10481 10478
10615 10614 10614 10612 10612 10611 10610 10609 10608 10607 10607 10606 10605 10604 10602 10602 10602 10602 10601 10599 10598 10597 10597 10596 10595 10594 10593 10591 10589 10588 10587 10586 10586 10585 10584 10584 10583 10582 10581 10580 10579 10579 10578 10577 10577 10576 10574 10572 10569 10567 10565 10562 10560 10558 10556 10553 10551 10549 10546 10544 10542 10539 10537 10534 10532 10529 10527 10524 10522 10519 10516 10513 10511 10507 10505 10502 10499 10496 10494 10491 10488 10485 10482 10479 10476 10472
10611 10611 10610 10609 10608 10607 10606 10605 10604 10603 10602 10602 10601 10600 10598 10597 10597 10597 10597 10595 10594 10594 10594 10592 10591 10589 10587 10587 10586 10584 10583 10582 10581 10581 10580 10579 10578 10577 10577 10576 10574 10574 10574 10573 10572 10571 10569 10567 10564 10562 10560 10558 10556 10553 10551 10549 10546 10544 10542 10540 10537 10535 10532 10530 10527 10524 10521 10519 10516 10514 10511 10508 10506 10503 10501 10497 10495 10492 10489 10486 10483 10480 10477 10474 10471 10467
10606 10607 10606 10605 10604 10603 10602 10602 10601 10599 10598 10597 10597 10596 10595 10594 10594 10593 10592 10591 10590 10589 10590 10589 10587 10584 10583 10582 10581 10581 10579 10577 10576 10576 10576 10575 10574 10574 10573 10571 10570 10569 10570 10569 10567 10566 10564 10563 10561 10557 10556 10554 10551 10549 10547 10544 10542 10540 10537 10536 10533 10531 10528 10525 10522 10519 10516 10513 10511 10508 10506 10503 10501 10498 10496 10493 10490 10487 10484 10481 10478 10475 10472 10468 10465 10462
10601 10602 10601 10601 10599 10599 10598 10598 10597 10596 10594 10594 10593 10592 10592 10591 10590 10589 10589 10587 10586 10585 10585 10584 10582 10580 10579 10577 10577 10577 10576 10574 10572 10571 10571 10570 10570 10569 10569 10567 10566 10564 10565 10564 10562 10561 10560 10558 10556 10554 10551 10549 10547 10544 10542 10540 10538 10536 10533 10531 10529 10526 10523 10521 10517 10514 10511 10509 10506 10503 10501 10498 10496 10493 10491 10488 10486 10482 10480 10477 10473 10470 10467 10463 10459 10456
10596 10597 10597 10596 10595 10594 10594 10593 10592 10592 10590 10589 10589 10588 10588 10587 10586 10585 10584 10583 10582 10581 10581 10579 10577 10576 10574 10572 10572 10573 10572 10570 10568 10567 10567 10566 10566 10565 10565 10563 10561 10559 10559 10559 10558 10556 10555 10553 10551 10549 10547 10545 10542 10540 10538 10536 10534 10531 10529 10526 10524 10521 10518 10515 10512 10509 10507 10504 10501 10498 10496 10493 10491 10488 10486 10483 10481 10478 10475 10472 10469 10465 10461 10458 10454 10451
10591 10591 10591 10591 10590 10589 10587 10587 10587 10587 10586 10584 10584 10583 10583 10582 10582 10581 10580 10578 10577 10576 10575 10574 10573 10572 10569 10567 10567 10567 10568 10567 10564 10562 10562 10561 10561 10561 10561 10559 10557 10555 10554 10553 10552 10551 10550 10548 10546 10544 10542 10540 10538 10536 10533 10531 10529 10526 10524 10521 10519 10516 10513 10510 10507 10504 10502 10499 10496 10494 10491 10488 10486 10483 10481 10478 10476 10473 10470 10467 10464 10460 10456 10452 10449 10445
10584 10584 10584 10584 10584 10582 10582 10582 10582 10581 10580 10579 10579 10578 10578 10577 10577 10576 10574 10573 10572 10571 10570 10569 10568 10567 10566 10564 10562 10561 10562 10562 10560 10557 10557 10556 10556 10556 10556 10555 10552 10551 10549 10548 10547 10546 10544 10542 10541 10539 10537 10535 10532 10531 10528 10526 10524 10521 10519 10516 10513 10511 10507 10505 10502 10499 10497 10494 10491 10489 10486 10483 10481 10478 10476 10473 10471 10467 10465 10462 10458 10454 10451 10447 10443 10439
10577 10577 10578 10578 10577 10576 10576 10576 10576 10575 10574 10574 10573 10572 10572 10571 10570 10569 10569 10567 10567 10566 10565 10564 10562 10561 10561 10559 10558 10557 10557 10557 10556 10553 10552 10551 10551 10551 10551 10550 10548 10546 10544 10543 10542 10541 10539 10537 10536 10534 10532 10530 10527 10525 10523 10521 10518 10516 10513 10511 10508 10505 10502 10499 10497 10494 10491 10489 10486 10484 10481 10478 10476 10473 10471 10468 10466 10462 10459 10456 10453 10449 10446 10441 10437 10434
10571 10571 10571 10571 10571 10571 10569 10569 10569 10569 10569 10568 10567 10567 10566 10564 10564 10563 10562 10562 10561 10561 10560 10559 10557 10556 10556 10555 10554 10552 10553 10553 10551 10549 10547 10547 10546 10545 10545 10544 10542 10540 10538 10537 10536 10536 10534 10532 10530 10528 10526 10524 10522 10520 10517 10515 10512 10510 10507 10505 10502 10499 10497 10494 10492 10489 10486 10484 10481 10478 10476 10473 10471 10468 10466 10463 10460 10457 10454 10451 10447 10444 10440 10436 10432 10429
10564 10564 10563 10564 10565 10565 10563 10562 10562 10562 10563 10562 10562 10561 10559 10558 10557 10557 10556 10556 10556 10555 10554 10554 10552 10552 10551 10551 10549 10548 10548 10548 10546 10544 10542 10541 10540 10539 10539 10539 10537 10534 10532 10531 10531 10530 10529 10527 10524 10522 10521 10519 10516 10514 10512 10509 10507 10504 10502 10499 10497 10494 10491 10489 10486 10484 10481 10478 10476 10473 10471 10468 10466 10463 10461 10457 10455 10452 10449 10445 10441 10437 10434 10430 10426 10423
10559 10557 10557 10557 10559 10559 10557 10556 10556 10556 10557 10557 10556 10554 10552 10552 10552 10551 10551 10551 10551 10550 10549 10548 10547 10547 10546 10546 10544 10543 10542 10543 10542 10540 10538 10536 10534 10533 10534 10534 10532 10529 10527 10526 10525 10524 10523 10521 10519 10517 10515 10513 10511 10508 10506 10504 10501 10499 10496 10494 10491 10489 10486 10483 10481 10478 10476 10473 10471 10468 10466 10463 10461 10457 10455 10452 10449 10446 10442 10439 10436 10431 10427 10424 10421 10418
10553 10552 10551 10552 10552 10552 10552 10551 10551 10551 10551 10551 10550 10549 10547 10547 10547 10546 10546 10545 10545 10544 10544 10543 10542 10542 10541 10541 10539 10538 10537 10537 10537 10536 10534 10531 10529 10527 10527 10528 10526 10523 10521 10520 10520 10519 10517 10515 10513 10511 10510 10507 10505 10502 10501 10498 10496 10493 10491 10488 10486 10483 10480 10477 10475 10472 10470 10467 10465 10462 10460 10457 10455 10452 10449 10446 10443 10440 10437 10433 10429 10426 10422 10419 10416 10412
10547 10547 10546 10546 10546 10546 10546 10546 10545 10544 10544 10544 10544 10543 10542 10542 10541 10541 10541 10540 10539 10539 10538 10537 10537 10536 10535 10534 10534 10533 10532 10532 10532 10531 10528 10526 10523 10522 10522 10522 10521 10517 10514 10514 10514 10513 10511 10509 10507 10506 10504 10502 10499 10497 10495 10492 10490 10487 10485 10482 10480 10477 10474 10472 10469 10467 10464 10462 10460 10457 10455 10452 10449 10446 10443 10440 10437 10434 10431 10427 10423 10419 10416 10413 10410 10407
10542 10541 10541 10541 10541 10541 10540 10539 10539 10539 10538 10538 10537 10537 10536 10536 10536 10535 10535 10534 10534 10533 10532 10532 10531 10530 10529 10529 10528 10527 10526 10526 10526 10525 10522 10520 10517 10516 10516 10516 10516 10512 10509 10507 10507 10507 10506 10503 10501 10499 10498 10496 10494 10492 10490 10487 10485 10482 10480 10477 10474 10472 10469 10466 10464 10461 10459 10457 10454 10452 10449 10447 10444 10441 10437 10434 10431 10427 10424 10421 10417 10414 10411 10407 10405 10402
10536 10536 10535 10535 10534 10534 10534 10533 10533 10532 10532 10532 10531 10531 10530 10530 10529 10529 10528 10527 10527 10527 10527 10526 10525 10524 10524 10524 10522 10521 10520 10520 10519 10519 10517 10515 10512 10509 10509 10510 10510 10507 10504 10502 10501 10501 10500 10497 10495 10494 10492 10491 10489 10487 10485 10482 10480 10477 10475 10472 10469 10466 10464 10461 10458 10456 10453 10451 10449 10446 10444 10441 10438 10435 10432 10428 10425 10421 10417 10414 10411 10407 10405 10402 10400 10397
10530 10530 10529 10529 10528 10527 10527 10527 10527 10526 10526 10526 10525 10524 10524 10524 10523 10522 10521 10521 10521 10521 10521 10520 10519 10518 10517 10517 10516 10515 10514 10514 10513 10512 10512 10510 10507 10504 10502 10503 10503 10502 10499 10497 10496 10495 10494 10492 10490 10488 10487 10485 10484 10482 10479 10477 10474 10472 10469 10466 10464 10461 10458 10456 10453 10451 10448 10446 10443 10441 10437 10435 10432 10429 10426 10422 10419 10415 10411 10408 10405 10402 10399 10397 10394 10392
10524 10524 10523 10522 10522 10522 10521 10521 10521 10520 10520 10519 10519 10518 10518 10518 10517 10516 10514 10514 10516 10516 10515 10514 10513 10512 10512 10511 10510 10509 10509 10508 10507 10506 10506 10505 10502 10498 10497 10497 10497 10496 10494 10491 10489 10488 10487 10487 10485 10483 10481 10479 10477 10476 10474 10472 10469 10466 10464 10461 10458 10456 10453 10451 10448 10446 10443 10440 10437 10435 10432 10429 10426 10423 10419 10416 10412 10409 10406 10402 10399 10396 10394 10392 10389 10387
10517 10517 10517 10517 10516 10516 10516 10515 10515 10514 10514 10514 10513 10512 10512 10512 10512 10511 10509 10509 10510 10510 10509 10507 10507 10507 10507 10506 10504 10504 10503 10502 10502 10501 10501 10499 10495 10492 10491 10492 10491 10489 10487 10486 10483 10480 10479 10479 10479 10479 10477 10474 10471 10469 10467 10466 10463 10461 10457 10455 10452 10450 10447 10445 10442 10440 10437 10434 10432 10429 10426 10423 10419 10416 10413 10410 10407 10403 10400 10397 10394 10391 10389 10386 10384 10382
10511 10511 10511 10511 10511 10510 10510 10510 10509 10509 10509 10509 10508 10507 10507 10507 10507 10506 10505 10505 10505 10505 10503 10502 10502 10502 10501 10501 10499 10497 10496 10496 10496 10497 10496 10493 10489 10486 10486 10486 10484 10482 10482 10481 10479 10474 10471 10469 10471 10472 10472 10469 10466 10463 10461 10459 10457 10454 10451 10449 10446 10444 10441 10439 10437 10434 10431 10429 10426 10423 10420 10417 10413 10410 10407 10404 10401 10397 10394 10392 10389 10386 10384 10381 10379 10377
10505 10505 10505 10505 10504 10504 10505 10504 10504 10504 10504 10504 10503 10502 10502 10502 10502 10501 10501 10501 10501 10499 10499 10497 10496 10496 10496 10495 10494 10492 10489 10489 10489 10491 10491 10488 10484 10480 10479 10480 10478 10476 10475 10476 10474 10471 10466 10462 10461 10462 10464 10463 10461 10457 10455 10452 10451 10448 10446 10443 10440 10437 10435 10433 10431 10428 10426 10422 10420 10417 10414 10411 10407 10404 10401 10397 10395 10392 10389 10386 10384 10381 10379 10376 10374 10372
10499 10499 10499 10499 10499 10499 10499 10499 10499 10499 10499 10498 10498 10497 10497 10497 10497 10496 10496 10496 10495 10494 10494 10492 10491 10490 10489 10489 10489 10487 10484 10483 10483 10484 10484 10482 10479 10475 10474 10474 10472 10470 10468 10468 10468 10467 10463 10459 10455 10454 10454 10454 10453 10451 10449 10446 10444 10442 10440 10437 10434 10431 10428 10426 10425 10422 10419 10416 10414 10411 10407 10404 10401 10397 10394 10392 10389 10386 10384 10381 10379 10376 10374 10371 10369 10367
10494 10494 10494 10494 10494 10494 10494 10494 10494 10494 10493 10493 10492 10492 10492 10492 10491 10491 10491 10490 10489 10489 10488 10487 10486 10484 10483 10482 10482 10481 10479 10478 10477 10477 10478 10476 10473 10469 10467 10467 10466 10464 10462 10461 10460 10459 10458 10455 10452 10449 10447 10446 10446 10444 10442 10441 10437 10436 10434 10431 10429 10426 10422 10420 10418 10416 10413 10410 10407 10404 10401 10397 10394 10391 10389 10386 10384 10381 10379 10376 10374 10371 10369 10367 10364 10362
10487 10488 10488 10488 10488 10488 10488 10488 10488 10488 10487 10487 10487 10487 10486 10486 10486 10485 10484 10484 10483 10482 10482 10481 10480 10479 10477 10476 10474 10473 10472 10471 10472 10472 10472 10470 10467 10464 10462 10461 10459 10458 10457 10455 10452 10451 10451 10449 10446 10444 10442 10440 10438 10437 10436 10435 10433 10430 10427 10425 10422 10420 10417 10414 10412 10409 10406 10403 10400 10397 10394 10391 10388 10385 10382 10380 10378 10376 10373 10371 10369 10366 10364 10362 10360 10358
10482 10482 10482 10482 10482 10482 10482 10482 10482 10482 10482 10481 10481 10481 10480 10480 10479 10479 10478 10477 10477 10476 10476 10475 10474 10473 10472 10470 10469 10467 10465 10464 10464 10465 10465 10464 10461 10459 10456 10454 10453 10452 10451 10449 10446 10444 10444 10441 10439 10437 10437 10434 10432 10429 10429 10429 10427 10425 10422 10419 10416 10414 10411 10408 10406 10403 10400 10396 10392 10389 10387 10384 10381 10379 10376 10374 10372 10370 10367 10366 10363 10361 10359 10357 10355 10353
10476 10476 10476 10476 10476 10476 10476 10476 10476 10476 10475 10475 10474 10474 10474 10474 10472 10472 10471 10471 10470 10469 10469 10468 10467 10467 10466 10465 10463 10461 10459 10457 10457 10457 10457 10457 10455 10453 10451 10448 10446 10446 10446 10443 10440 10437 10436 10434 10432 10431 10430 10429 10426 10424 10422 10421 10420 10418 10415 10412 10410 10407 10405 10401 10399 10396 10393 10389 10386 10382 10380 10377 10375 10372 10371 10368 10366 10364 10362 10360 10358 10356 10354 10352 10350 10348
10469 10469 10469 10469 10470 10470 10469 10469 10469 10469 10469 10468 10468 10467 10467 10467 10466 10466 10465 10464 10464 10463 10462 10461 10461 10460 10459 10459 10457 10456 10454 10452 10451 10451 10450 10449 10449 10447 10445 10442 10440 10439 10438 10437 10434 10431 10429 10427 10425 10423 10422 10421 10420 10419 10417 10415 10412 10410 10407 10405 10403 10401 10398 10395 10391 10388 10386 10382 10379 10376 10373 10371 10369 10366 10364 10362 10361 10358 10356 10354 10352 10351 10349 10347 10345 10343
10463 10463 10463 10463 10463 10464 10463 10462 10462 10462 10462 10462 10462 10461 10461 10461 10460 10459 10458 10457 10457 10456 10456 10455 10454 10453 10452 10451 10451 10449 10448 10447 10446 10444 10443 10442 10441 10440 10439 10436 10433 10431 10431 10430 10428 10425 10422 10420 10418 10416 10414 10413 10412 10411 10410 10409 10406 10404 10401 10398 10396 10394 10391 10388 10385 10381 10378 10375 10372 10369 10366 10364 10362 10360 10358 10356 10354 10352 10351 10349 10347 10345 10343 10342 10340 10338
10456 10457 10456 10457 10457 10457 10457 10457 10456 10456 10456 10456 10456 10455 10454 10454 10453 10452 10452 10451 10450 10449 10449 10448 10447 10446 10445 10444 10443 10442 10441 10440 10439 10437 10436 10435 10434 10433 10431 10429 10427 10424 10422 10422 10421 10419 10416 10414 10412 10410 10408 10407 10405 10404 10402 10400 10399 10397 10394 10391 10389 10386 10383 10381 10377 10374 10371 10367 10365 10362 10360 10357 10356 10354 10352 10350 10348 10346 10344 10342 10341 10339 10338 10336 10334 10333
10450 10450 10450 10450 10450 10451 10451 10450 10450 10449 10449 10449 10449 10448 10447 10447 10446 10446 10445 10444 10443 10442 10442 10441 10440 10439 10438 10437 10436 10435 10434 10432 10431 10431 10429 10428 10427 10426 10424 10422 10420 10418 10416 10414 10412 10411 10409 10407 10405 10403 10401 10400 10399 10397 10395 10392 10391 10389 10387 10385 10382 10379 10376 10374 10371 10367 10364 10361 10359 10356 10354 10351 10349 10348 10346 10344 10342 10340 10339 10337 10335 10334 10332 10331 10329 10327
10443 10443 10442 10442 10443 10444 10444 10443 10443 10443 10442 10442 10441 10441 10440 10439 10439 10439 10437 10436 10436 10436 10435 10434 10434 10432 10431 10429 10429 10428 10427 10426 10424 10423 10422 10421 10419 10418 10417 10415 10413 10411 10409 10407 10406 10404 10402 10401 10399 10397 10394 10392 10391 10390 10387 10385 10383 10382 10380 10377 10375 10372 10369 10366 10364 10361 10357 10354 10352 10350 10347 10346 10343 10341 10339 10337 10336 10334 10332 10331 10329 10327 10326 10325 10324 10322
10436 10436 10436 10436 10436 10436 10436 10436 10436 10436 10435 10434 10434 10433 10432 10432 10432 10431 10430 10429 10428 10427 10427 10427 10426 10425 10424 10422 10420 10419 10419 10419 10417 10416 10414 10413 10412 10411 10409 10408 10406 10405 10403 10401 10399 10396 10394 10394 10392 10391 10388 10386 10385 10383 10380 10377 10376 10374 10372 10370 10368 10365 10362 10359 10357 10354 10352 10348 10346 10344 10342 10339 10337 10336 10334 10332 10330 10328 10327 10325 10324 10322 10321 10319 10318 10317
10429 10429 10428 10429 10429 10429 10429 10428 10428 10427 10427 10427 10426 10425 10424 10424 10424 10424 10422 10421 10420 10419 10419 10419 10419 10417 10416 10414 10412 10411 10411 10410 10409 10408 10407 10406 10405 10404 10402 10401 10399 10398 10397 10395 10392 10390 10387 10386 10384 10383 10382 10381 10379 10377 10374 10371 10368 10366 10364 10362 10361 10358 10355 10351 10349 10347 10345 10342 10340 10337 10336 10334 10331 10329 10328 10326 10324 10322 10321 10319 10318 10317 10316 10314 10313 10312
10422 10421 10421 10421 10421 10421 10421 10421 10420 10419 10419 10419 10418 10417 10417 10417 10417 10416 10415 10414 10412 10412 10412 10411 10411 10410 10409 10406 10404 10403 10402 10402 10401 10400 10400 10399 10398 10397 10396 10394 10392 10391 10389 10388 10386 10384 10381 10379 10377 10375 10374 10373 10372 10370 10367 10364 10362 10359 10357 10355 10353 10351 10348 10346 10343 10341 10339 10336 10334 10331 10329 10327 10326 10324 10322 10320 10319 10317 10315 10313 10312 10311 10309 10309 10307 10306
10414 10414 10414 10414 10414 10413 10413 10412 10412 10412 10412 10411 10411 10410 10409 10409 10409 10408 10407 10406 10405 10404 10404 10404 10404 10402 10401 10398 10397 10396 10396 10394 10393 10392 10392 10392 10391 10389 10389 10387 10386 10384 10382 10381 10379 10377 10376 10374 10371 10369 10367 10365 10364 10362 10360 10358 10356 10352 10349 10347 10346 10344 10341 10339 10337 10335 10332 10330 10327 10325 10324 10322 10320 10318 10316 10314 10312 10311 10309 10307 10306 10304 10304 10302 10302 10301
10407 10407 10406 10406 10406 10406 10405 10404 10404 10404 10404 10404 10402 10402 10402 10402 10401 10401 10399 10399 10398 10397 10396 10396 10396 10396 10394 10391 10389 10389 10389 10387 10386 10384 10384 10384 10383 10382 10381 10380 10379 10377 10376 10374 10372 10370 10368 10367 10365 10363 10361 10358 10356 10354 10352 10351 10349 10346 10342 10341 10339 10336 10334 10332 10330 10329 10326 10324 10321 10319 10317 10316 10314 10312 10310 10309 10307 10305 10303 10302 10300 10299 10297 10297 10296 10296
10399 10399 10399 10398 10398 10397 10397 10397 10397 10397 10397 10396 10395 10394 10394 10394 10394 10393 10392 10391 10391 10390 10389 10389 10388 10387 10386 10384 10383 10382 10381 10380 10378 10377 10376 10376 10376 10375 10374 10372 10371 10369 10368 10366 10364 10363 10361 10359 10357 10356 10354 10352 10349 10346 10344 10342 10341 10339 10336 10334 10332 10329 10327 10325 10323 10322 10320 10318 10316 10313 10311 10309 10307 10306 10304 10302 10301 10299 10297 10296 10294 10293 10292 10291 10290 10289
10391 10391 10391 10391 10391 10391 10390 10390 10390 10390 10389 10389 10387 10387 10387 10387 10386 10386 10384 10383 10383 10383 10383 10382 10381 10380 10379 10377 10376 10376 10375 10374 10372 10370 10369 10369 10368 10367 10366 10364 10363 10361 10360 10358 10357 10355 10353 10352 10350 10348 10347 10345 10342 10339 10336 10334 10333 10332 10329 10327 10325 10322 10321 10318 10316 10315 10313 10311 10309 10307 10305 10303 10301 10299 10297 10296 10294 10293 10292 10290 10288 10287 10286 10285 10284 10284
10384 10384 10384 10383 10383 10383 10383 10382 10382 10383 10382 10382 10381 10380 10379 10379 10379 10379 10377 10377 10376 10376 10376 10375 10374 10373 10372 10370 10369 10368 10367 10367 10365 10364 10362 10361 10361 10359 10358 10357 10355 10354 10352 10350 10348 10346 10345 10344 10342 10340 10339 10338 10336 10333 10329 10327 10326 10324 10322 10320 10318 10316 10314 10312 10310 10308 10307 10304 10302 10301 10299 10297 10295 10293 10292 10290 10288 10287 10286 10284 10282 10281 10280 10279 10279 10278
10376 10376 10376 10376 10376 10376 10376 10376 10376 10376 10376 10374 10374 10373 10372 10371 10371 10371 10371 10370 10370 10369 10368 10367 10367 10366 10365 10363 10362 10361 10361 10359 10358 10357 10355 10354 10352 10352 10351 10349 10347 10345 10344 10342 10339 10337 10336 10335 10333 10331 10330 10330 10329 10327 10324 10321 10318 10317 10315 10313 10312 10310 10308 10306 10303 10302 10300 10298 10296 10294 10292 10290 10288 10287 10286 10284 10282 10281 10279 10277 10276 10274 10274 10273 10272 10272
10368 10369 10369 10369 10369 10369 10369 10369 10369 10369 10368 10367 10367 10366 10366 10364 10364 10363 10363 10363 10362 10362 10361 10361 10360 10359 10358 10356 10355 10354 10353 10352 10351 10350 10348 10346 10345 10344 10343 10341 10339 10337 10336 10333 10331 10329 10327 10327 10325 10322 10321 10321 10321 10321 10319 10315 10312 10309 10307 10306 10304 10303 10301 10299 10297 10295 10294 10291 10289 10287 10285 10283 10282 10280 10279 10277 10276 10274 10272 10271 10269 10268 10267 10267 10266 10266